Retour au catalogue

GJZ 05

ActifMilitaireLEO
NORAD 62294·PAYLOAD·🇨🇳 China

Lancé Dec 12, 2024 depuis Jiuquan Satellite Launch Center

Loading…

Prochains Passages (prochaines 24 heures)

TLE

FraisSource: Space-Track

Époque: Sep 14, 2026, 20:19 UTC

1 62294U 24238E   26257.84707308 -.00000049  00000-0  72524-4 0  9999
2 62294  59.9146 359.5883 0022601  66.4529 293.8849 13.75197891 88249

Suivez GJZ 05 en temps réel avec AllMySat

Download on the App Store